Temp
-9 -9 -9 -9 -9 -9 -9 -9 -8 -9 -9 -9 -9 -9 -9 -10 -10 -11 -10 -10 -10 -10 -10 -10 -10 -11 -11 -11 -11 -11 -11 -11 -11 -11 -10 -10 -10 -10 -10 -10 -10 -10 -10 -11 -11 -11 -11 -11 -11
-10 -10 -9 -9 -10 -10 -10 -9 -9 -9 -9 -9 -9 -9 -10 -10 -10 -10 -10 -10 -9 -9 -10 -10 -10 -11 -11 -11 -11 -12 -11 -11 -11 -11 -11 -11 -11 -10 -10 -10 -11 -10 -11 -11 -11 -11 -11 -11 -11
-10 -10 -10 -10 -10 -11 -11 -10 -9 -9 -10 -10 -10 -10 -10 -10 -10 -10 -10 -10 -10 -10 -10 -10 -10 -10 -10 -11 -11 -12 -12 -11 -11 -12 -11 -11 -11 -11 -11 -10 -11 -10 -11 -11 -11 -11 -11 -11 -11
-10 -10 -10 -10 -10 -10 -10 -10 -9 -9 -10 -10 -10 -10 -10 -10 -10 -10 -10 -10 -10 -10 -10 -10 -10 -10 -11 -11 -11 -12 -12 -12 -11 -11 -12 -11 -11 -11 -11 -11 -11 -11 -11 -11 -11 -11 -11 -12 -12
-10 -10 -10 -10 -10 -10 -10 -10 -10 -10 -10 -10 -10 -10 -10 -10 -10 -10 -10 -10 -11 -11 -10 -10 -10 -10 -11 -11 -11 -11 -12 -12 -12 -12 -12 -12 -11 -11 -11 -11 -11 -11 -11 -11 -11 -11 -11 -12 -12
-10 -10 -10 -10 -11 -11 -10 -10 -10 -10 -11 -11 -10 -10 -10 -10 -10 -11 -11 -11 -11 -11 -10 -10 -10 -10 -10 -11 -11 -11 -11 -11 -12 -12 -12 -12 -11 -12 -12 -11 -11 -11 -11 -11 -11 -11 -11 -11 -12
-10 -11 -11 -10 -11 -11 -11 -11 -11 -11 -11 -11 -11 -11 -11 -11 -11 -11 -11 -11 -11 -11 -10 -10 -10 -10 -10 -10 -11 -11 -12 -11 -12 -12 -12 -12 -12 -12 -11 -11 -11 -11 -11 -11 -11 -11 -11 -11 -12
-10 -10 -11 -11 -11 -11 -11 -11 -11 -11 -11 -10 -10 -11 -11 -11 -11 -11 -11 -11 -11 -11 -11 -11 -10 -10 -10 -10 -11 -11 -11 -11 -12 -12 -12 -12 -12 -11 -12 -11 -11 -11 -11 -11 -11 -11 -11 -11 -11
-10 -10 -11 -11 -11 -11 -11 -10 -11 -10 -11 -10 -10 -10 -10 -11 -11 -11 -12 -11 -11 -10 -10 -10 -10 -10 -10 -11 -11 -11 -11 -11 -11 -11 -12 -12 -12 -12 -12 -11 -11 -11 -11 -11 -11 -11 -11 -11 -11
-10 -10 -11 -11 -11 -11 -11 -10 -10 -10 -10 -10 -10 -10 -10 -11 -11 -11 -11 -11 -11 -11 -10 -10 -10 -10 -10 -10 -11 -11 -11 -11 -11 -11 -11 -11 -12 -12 -12 -12 -12 -12 -12 -12 -11 -12 -11 -11 -11
-10 -10 -10 -11 -11 -10 -10 -10 -10 -10 -10 -10 -10 -10 -11 -11 -11 -11 -12 -12 -11 -11 -11 -10 -10 -10 -10 -10 -10 -10 -11 -11 -11 -11 -11 -11 -12 -12 -12 -12 -12 -12 -12 -12 -12 -12 -12 -12 -11
-10 -10 -10 -10 -11 -11 -10 -10 -10 -10 -10 -10 -10 -10 -10 -11 -11 -11 -11 -11 -11 -11 -11 -11 -10 -10 -10 -10 -10 -10 -10 -10 -11 -11 -11 -11 -12 -12 -12 -12 -12 -13 -13 -12 -12 -13 -13 -12 -12
-10 -10 -10 -10 -11 -11 -10 -10 -10 -10 -10 -10 -10 -10 -10 -10 -10 -10 -10 -11 -11 -11 -10 -10 -10 -9 -10 -10 -10 -10 -10 -11 -11 -11 -11 -11 -11 -11 -11 -12 -12 -12 -12 -13 -13 -13 -13 -13 -13
-10 -10 -10 -10 -10 -11 -11 -11 -10 -10 -10 -10 -10 -10 -10 -10 -11 -11 -11 -11 -11 -11 -11 -11 -10 -10 -10 -10 -10 -10 -10 -10 -11 -11 -11 -11 -11 -11 -11 -11 -12 -12 -12 -12 -12 -12 -13 -13 -13
-10 -10 -10 -11 -11 -10 -10 -11 -10 -9 -10 -10 -10 -10 -10 -10 -10 -11 -11 -11 -11 -11 -11 -11 -11 -10 -10 -10 -10 -10 -10 -11 -11 -11 -11 -11 -11 -11 -12 -12 -12 -12 -12 -12 -12 -13 -13 -13 -13
-10 -10 -10 -11 -10 -10 -10 -11 -10 -10 -10 -10 -10 -10 -10 -10 -10 -10 -10 -10 -10 -10 -10 -10 -11 -11 -11 -11 -11 -11 -11 -11 -11 -11 -11 -11 -11 -11 -12 -12 -12 -12 -12 -12 -12 -12 -13 -13 -13
-10 -10 -11 -10 -10 -10 -10 -10 -10 -10 -10 -10 -10 -10 -10 -10 -10 -10 -10 -10 -10 -10 -10 -10 -10 -11 -11 -11 -11 -11 -11 -11 -11 -11 -11 -11 -11 -11 -12 -12 -12 -12 -12 -12 -12 -12 -12 -12 -13
-11 -11 -10 -11 -10 -10 -10 -10 -10 -11 -10 -10 -10 -10 -10 -10 -11 -10 -10 -10 -10 -10 -10 -10 -10 -10 -11 -11 -11 -11 -12 -11 -11 -11 -11 -11 -11 -12 -11 -12 -12 -12 -12 -12 -12 -12 -12 -12 -12
-11 -11 -11 -10 -11 -11 -11 -10 -11 -10 -10 -10 -11 -10 -10 -10 -10 -10 -10 -10 -10 -11 -11 -11 -11 -11 -11 -11 -11 -11 -11 -12 -12 -12 -12 -12 -11 -11 -12 -12 -12 -12 -12 -12 -12 -12 -12 -12 -12
-11 -11 -11 -11 -11 -11 -11 -10 -11 -11 -10 -10 -11 -11 -11 -11 -11 -11 -11 -11 -11 -11 -11 -11 -12 -12 -12 -12 -12 -12 -12 -12 -13 -13 -13 -12 -12 -12 -12 -12 -12 -12 -12 -12 -12 -12 -12 -12 -12
-12 -12 -12 -12 -11 -11 -11 -11 -11 -11 -11 -11 -11 -11 -11 -11 -11 -11 -11 -11 -11 -11 -11 -11 -12 -12 -12 -12 -12 -12 -13 -13 -13 -13 -13 -13 -13 -13 -13 -13 -13 -13 -13 -12 -12 -13 -12 -12 -12
-12 -12 -12 -12 -12 -12 -11 -11 -11 -11 -11 -11 -11 -11 -11 -11 -11 -11 -11 -11 -11 -11 -11 -11 -11 -11 -11 -11 -11 -12 -12 -13 -13 -13 -13 -13 -13 -13 -13 -13 -13 -13 -14 -14 -13 -13 -13 -13 -13
-13 -12 -12 -12 -12 -12 -12 -11 -11 -11 -11 -11 -11 -11 -11 -11 -11 -11 -11 -11 -11 -11 -11 -11 -11 -11 -11 -11 -11 -11 -11 -11 -12 -13 -13 -13 -14 -14 -14 -14 -14 -14 -14 -14 -14 -15 -14 -14 -13
-13 -13 -12 -12 -13 -11 -11 -12 -10 -12 -11 -11 -11 -11 -12 -12 -12 -12 -12 -12 -11 -12 -12 -11 -11 -11 -11 -11 -12 -12 -12 -12 -12 -13 -13 -14 -13 -13 -13 -14 -14 -14 -14 -14 -15 -15 -14 -14 -14
-13 -13 -13 -13 -12 -11 -12 -11 -11 -11 -11 -11 -11 -11 -11 -12 -12 -11 -11 -11 -11 -11 -11 -11 -11 -11 -11 -11 -12 -12 -12 -13 -13 -13 -13 -14 -14 -15 -14 -14 -14 -14 -14 -15 -15 -15 -15 -15 -15
-13 -14 -14 -13 -13 -12 -11 -10 -11 -11 -11 -12 -12 -12 -11 -12 -12 -12 -12 -12 -11 -11 -12 -11 -11 -12 -12 -12 -12 -12 -13 -13 -13 -13 -14 -14 -15 -15 -16 -16 -15 -14 -15 -15 -15 -15 -15 -15 -16
-12 -12 -13 -13 -12 -12 -11 -10 -10 -10 -11 -12 -12 -12 -12 -12 -12 -12 -12 -12 -12 -12 -12 -12 -12 -12 -12 -12 -13 -13 -14 -14 -14 -14 -15 -15 -15 -15 -15 -16 -16 -16 -16 -16 -17 -17 -17 -16 -16
-12 -13 -13 -13 -12 -12 -11 -11 -12 -10 -11 -11 -11 -12 -12 -13 -13 -13 -13 -12 -13 -13 -13 -13 -13 -13 -13 -13 -13 -13 -13 -13 -13 -14 -14 -15 -15 -15 -16 -16 -16 -16 -16 -16 -16 -16 -16 -16 -16
-14 -13 -13 -13 -13 -12 -12 -13 -11 -10 -11 -11 -12 -12 -13 -13 -13 -13 -13 -13 -13 -13 -13 -13 -13 -13 -13 -13 -13 -15 -15 -15 -14 -14 -15 -16 -16 -16 -16 -16 -16 -16 -16 -16 -16 -16 -16 -16 -16
-14 -13 -13 -13 -13 -13 -13 -12 -12 -12 -12 -12 -12 -12 -13 -13 -13 -13 -13 -13 -13 -14 -14 -14 -13 -14 -14 -15 -15 -14 -14 -16 -16 -16 -17 -17 -16 -16 -16 -16 -16 -16 -16 -16 -15 -16 -16 -16 -16
Height
5855 5855 5856 5855 5858 5856 5855 5857 5858 5859 5861 5862 5863 5864 5865 5866 5866 5869 5866 5867 5868 5868 5868 5868 5868 5867 5867 5867 5867 5867 5867 5866 5865 5865 5864 5864 5863 5862 5860 5859 5859 5858 5857 5856 5855 5854 5854 5852 5852
5852 5852 5853 5853 5854 5855 5852 5854 5856 5857 5858 5859 5861 5862 5863 5864 5863 5863 5864 5864 5865 5866 5865 5865 5865 5865 5864 5864 5864 5865 5865 5864 5863 5863 5863 5862 5861 5860 5859 5858 5857 5856 5855 5854 5853 5851 5851 5850 5849
5849 5849 5852 5851 5850 5853 5849 5851 5853 5855 5856 5857 5858 5860 5861 5861 5861 5861 5861 5861 5862 5863 5863 5863 5862 5862 5862 5861 5861 5862 5862 5862 5861 5861 5861 5860 5859 5858 5857 5856 5855 5854 5853 5852 5850 5848 5847 5847 5847
5844 5846 5849 5848 5845 5845 5847 5848 5850 5852 5854 5854 5856 5857 5858 5858 5859 5859 5859 5859 5858 5859 5860 5859 5859 5859 5859 5859 5858 5858 5859 5859 5859 5859 5859 5858 5857 5856 5855 5854 5853 5852 5851 5850 5847 5845 5844 5844 5844
5839 5841 5845 5845 5842 5839 5843 5845 5846 5849 5851 5853 5854 5854 5855 5856 5856 5856 5856 5856 5854 5854 5855 5856 5855 5855 5855 5855 5855 5855 5856 5857 5857 5857 5857 5856 5855 5854 5853 5852 5850 5850 5848 5848 5845 5843 5842 5841 5841
5835 5837 5841 5841 5839 5838 5839 5842 5844 5846 5848 5850 5851 5851 5852 5853 5853 5853 5853 5851 5849 5849 5850 5851 5852 5853 5852 5851 5851 5852 5853 5854 5854 5853 5853 5853 5853 5852 5851 5849 5848 5846 5846 5845 5843 5841 5840 5838 5838
5831 5833 5836 5837 5837 5835 5835 5837 5841 5842 5844 5846 5848 5848 5849 5849 5850 5850 5849 5847 5846 5846 5846 5847 5848 5849 5848 5848 5848 5848 5849 5850 5850 5850 5849 5849 5849 5849 5848 5846 5845 5843 5844 5843 5841 5839 5838 5837 5836
5827 5829 5831 5833 5832 5830 5828 5833 5837 5838 5841 5844 5845 5845 5845 5845 5845 5846 5846 5844 5843 5843 5842 5842 5842 5843 5843 5844 5845 5845 5845 5846 5845 5845 5845 5846 5846 5846 5845 5843 5842 5841 5840 5840 5838 5838 5836 5835 5835
5824 5826 5826 5827 5826 5824 5824 5830 5832 5835 5837 5840 5841 5841 5841 5842 5842 5842 5842 5841 5840 5839 5838 5838 5838 5838 5839 5840 5840 5841 5840 5841 5841 5841 5841 5841 5841 5841 5840 5839 5838 5837 5837 5837 5836 5834 5834 5833 5832
5821 5822 5821 5820 5820 5821 5822 5825 5827 5831 5833 5835 5835 5835 5837 5838 5839 5839 5839 5838 5837 5837 5836 5835 5835 5834 5834 5835 5836 5838 5838 5837 5836 5836 5836 5837 5838 5837 5836 5836 5834 5834 5834 5833 5832 5831 5831 5830 5830
5815 5816 5816 5816 5816 5817 5818 5819 5822 5826 5829 5829 5830 5831 5833 5834 5834 5834 5834 5834 5833 5833 5831 5831 5831 5831 5831 5831 5831 5831 5832 5833 5832 5832 5833 5833 5833 5833 5832 5832 5831 5831 5831 5830 5829 5828 5828 5827 5827
5810 5810 5811 5812 5813 5814 5814 5815 5817 5821 5822 5825 5826 5828 5829 5830 5830 5831 5830 5830 5829 5827 5826 5826 5827 5827 5828 5827 5828 5827 5826 5826 5826 5827 5828 5828 5828 5828 5828 5828 5828 5827 5826 5826 5826 5825 5824 5824 5823
5805 5805 5807 5808 5808 5809 5809 5810 5813 5816 5818 5820 5821 5824 5825 5825 5825 5827 5827 5826 5826 5824 5824 5824 5823 5824 5824 5825 5825 5825 5825 5824 5823 5822 5822 5822 5822 5823 5823 5823 5823 5823 5822 5822 5822 5821 5821 5820 5819
5799 5801 5802 5803 5803 5805 5806 5805 5810 5810 5813 5815 5818 5819 5821 5821 5821 5821 5821 5821 5820 5821 5821 5820 5820 5820 5820 5821 5821 5821 5821 5820 5820 5821 5821 5819 5818 5817 5816 5817 5817 5817 5817 5817 5817 5816 5816 5816 5815
5794 5795 5796 5798 5799 5801 5803 5803 5804 5806 5807 5808 5812 5815 5815 5816 5817 5816 5816 5816 5815 5815 5816 5816 5814 5814 5815 5815 5815 5815 5815 5815 5816 5816 5816 5816 5815 5814 5812 5811 5810 5809 5808 5810 5810 5810 5809 5809 5809
5788 5790 5790 5792 5794 5796 5799 5799 5798 5799 5800 5802 5804 5807 5808 5809 5810 5810 5810 5810 5810 5810 5810 5810 5810 5810 5811 5810 5809 5809 5809 5810 5809 5809 5809 5809 5809 5808 5807 5806 5805 5804 5803 5802 5801 5802 5802 5802 5802
5781 5784 5783 5785 5788 5790 5792 5793 5792 5794 5794 5795 5797 5798 5800 5801 5802 5803 5804 5804 5805 5805 5805 5805 5804 5805 5806 5804 5803 5802 5802 5801 5801 5801 5800 5800 5800 5799 5799 5799 5799 5798 5798 5798 5797 5796 5796 5795 5794
5773 5774 5775 5778 5782 5783 5785 5787 5786 5787 5788 5789 5790 5791 5792 5793 5794 5795 5795 5796 5796 5797 5798 5799 5799 5799 5798 5798 5797 5796 5795 5794 5793 5792 5791 5790 5790 5790 5790 5789 5790 5791 5790 5790 5790 5790 5788 5788 5789
5763 5765 5769 5770 5772 5775 5775 5779 5779 5779 5779 5781 5783 5783 5783 5784 5786 5787 5787 5788 5788 5789 5790 5791 5791 5790 5790 5789 5789 5789 5788 5786 5785 5785 5783 5782 5780 5780 5780 5780 5780 5781 5781 5781 5783 5782 5781 5780 5779
5755 5757 5762 5763 5765 5765 5765 5771 5776 5769 5770 5773 5774 5775 5775 5775 5777 5778 5779 5780 5781 5782 5782 5783 5783 5782 5782 5781 5780 5780 5779 5777 5776 5775 5774 5772 5771 5770 5770 5769 5768 5769 5769 5769 5771 5771 5772 5770 5770
5746 5748 5752 5755 5753 5755 5756 5760 5764 5763 5763 5764 5765 5765 5766 5767 5768 5769 5771 5772 5774 5775 5775 5775 5774 5773 5771 5771 5770 5770 5770 5769 5768 5765 5764 5762 5760 5758 5757 5756 5756 5756 5756 5757 5757 5758 5759 5759 5760
5736 5740 5742 5744 5743 5746 5746 5748 5749 5754 5756 5757 5757 5757 5757 5758 5759 5760 5762 5762 5763 5763 5763 5763 5762 5762 5762 5761 5760 5758 5756 5756 5755 5755 5753 5752 5750 5748 5747 5745 5743 5744 5743 5742 5745 5745 5746 5746 5748
5727 5727 5731 5730 5733 5734 5738 5736 5740 5740 5746 5748 5748 5749 5749 5749 5750 5750 5750 5750 5751 5750 5751 5750 5750 5749 5749 5748 5746 5745 5744 5742 5740 5739 5738 5737 5736 5735 5734 5734 5732 5730 5731 5730 5730 5731 5731 5732 5732
5714 5718 5720 5721 5723 5721 5728 5727 5731 5728 5733 5737 5738 5739 5740 5741 5741 5741 5740 5741 5741 5740 5739 5738 5737 5735 5734 5732 5730 5729 5728 5727 5726 5725 5724 5724 5723 5722 5720 5718 5717 5717 5715 5716 5714 5715 5715 5715 5716
5702 5705 5711 5712 5710 5710 5714 5714 5723 5717 5718 5726 5728 5730 5731 5731 5731 5731 5731 5730 5729 5728 5726 5725 5723 5721 5720 5718 5717 5715 5712 5711 5710 5708 5707 5706 5706 5704 5704 5702 5701 5701 5700 5698 5698 5698 5698 5699 5698
5692 5697 5700 5698 5702 5705 5699 5701 5704 5706 5710 5711 5714 5717 5718 5718 5717 5717 5717 5717 5716 5714 5713 5711 5709 5707 5706 5704 5701 5699 5697 5695 5693 5691 5689 5688 5686 5685 5685 5684 5682 5681 5680 5680 5679 5679 5680 5681 5681
5680 5684 5693 5690 5691 5690 5692 5690 5694 5694 5697 5701 5702 5702 5704 5705 5705 5705 5703 5701 5700 5698 5696 5695 5694 5692 5690 5688 5686 5683 5681 5679 5678 5675 5672 5670 5668 5667 5666 5663 5662 5663 5662 5661 5660 5661 5662 5663 5662
5671 5677 5676 5677 5678 5677 5680 5680 5680 5680 5686 5687 5688 5690 5690 5690 5689 5689 5688 5685 5682 5681 5680 5678 5676 5674 5673 5672 5670 5668 5664 5661 5659 5656 5655 5652 5649 5646 5644 5642 5641 5641 5641 5640 5640 5641 5642 5642 5642
5662 5660 5664 5668 5670 5669 5671 5673 5667 5668 5669 5671 5672 5674 5674 5673 5672 5669 5667 5666 5665 5663 5661 5661 5660 5660 5656 5651 5650 5648 5645 5641 5638 5634 5629 5626 5625 5623 5620 5619 5617 5616 5615 5616 5615 5615 5618 5619 5620
5647 5648 5649 5652 5658 5661 5661 5662 5656 5657 5658 5657 5660 5661 5661 5658 5656 5655 5654 5652 5650 5648 5647 5646 5643 5641 5639 5637 5631 5628 5624 5618 5614 5612 5609 5605 5601 5597 5594 5590 5587 5586 5582 5583 5584 5584 5588 5590 5593
Wind_Speed
14 12 11 11 11 13 16 15 11 10 11 11 12 13 12 13 16 16 16 17 18 19 20 15 12 12 13 12 11 9 9 12 14 16 17 15 12 12 11 9 9 11 14 16 14 14 13 13 15
15 13 12 13 14 10 15 11 8 6 8 12 14 13 12 15 20 21 19 20 21 22 19 16 14 16 15 12 12 11 9 10 13 14 16 15 11 11 11 10 10 12 14 15 13 11 12 13 14
17 14 14 15 16 11 16 10 7 7 9 16 18 16 16 18 20 20 21 22 22 28 22 20 17 17 16 14 11 9 10 11 12 12 15 16 14 11 10 11 11 12 13 14 12 9 10 12 14
19 16 14 16 19 21 16 12 11 9 10 16 21 20 20 22 22 24 26 28 28 25 22 20 18 17 15 14 11 8 10 12 13 13 15 17 18 15 12 11 11 12 13 13 12 9 8 11 13
19 18 15 15 19 23 17 15 15 12 12 12 21 22 20 18 18 17 21 26 28 25 23 21 18 17 15 13 11 11 12 14 14 15 18 18 20 19 16 14 12 12 13 13 13 11 8 9 11
17 18 18 19 21 22 21 21 17 16 13 14 17 19 19 17 18 20 22 24 28 25 22 20 17 17 15 14 13 14 15 16 17 18 18 18 19 19 16 14 15 14 13 13 13 13 13 10 10
18 18 21 21 22 26 28 28 21 18 18 19 19 20 19 20 20 21 21 23 22 21 19 18 18 16 16 16 16 16 17 18 18 18 17 18 17 17 15 12 14 14 14 14 13 13 15 15 12
19 18 21 22 24 30 34 31 31 24 21 19 20 21 20 18 15 14 18 22 21 20 18 17 16 15 16 17 17 17 18 19 18 19 18 18 18 17 13 11 13 14 13 14 14 14 13 16 17
18 18 21 23 26 30 32 20 21 21 22 20 18 18 17 17 17 18 20 20 20 19 17 18 15 15 15 17 19 19 19 20 21 21 20 20 18 16 14 13 15 16 14 14 14 15 15 15 17
18 19 22 25 26 27 25 21 22 22 20 19 19 19 17 17 18 19 19 21 20 20 20 19 16 14 15 17 18 19 20 21 22 22 21 21 19 19 17 17 17 17 16 16 17 16 15 17 18
17 19 25 25 26 26 24 23 22 20 19 19 18 18 17 18 19 20 20 22 22 20 21 22 19 17 18 19 19 19 20 21 21 21 23 23 22 22 19 18 18 19 19 19 20 18 16 16 18
16 19 24 23 24 25 26 24 24 22 20 18 19 15 19 20 22 23 23 24 24 23 25 24 22 19 19 19 20 21 20 22 22 23 24 24 23 24 23 21 21 21 21 21 21 20 19 17 17
17 20 21 21 23 25 26 26 24 21 21 21 21 20 22 21 22 21 20 18 20 24 26 26 24 23 22 21 21 22 23 23 25 26 26 26 27 27 25 24 24 23 23 23 22 23 23 22 20
20 20 21 20 23 24 25 28 18 24 22 24 24 22 21 22 23 22 21 21 23 21 25 26 27 25 25 24 23 25 25 26 26 27 28 29 29 29 28 27 27 26 26 25 24 24 24 25 24
22 22 23 22 23 23 24 26 23 24 26 27 25 23 24 22 22 23 22 22 24 25 24 26 28 28 26 26 27 28 28 28 29 30 30 31 32 32 33 31 29 29 28 28 27 27 26 25 26
26 25 25 25 24 26 25 27 28 28 29 29 29 27 26 23 23 25 25 25 27 28 28 29 30 29 29 30 30 29 30 31 32 32 33 34 35 37 36 35 35 34 33 31 30 30 30 28 28
28 27 29 28 27 28 28 30 31 31 32 29 29 28 26 26 25 25 26 27 28 29 29 30 29 30 32 33 34 33 34 34 35 35 37 38 39 40 40 41 40 39 36 36 35 34 34 33 30
32 32 33 32 30 31 32 31 33 34 34 32 32 31 31 31 29 28 28 29 29 30 30 29 29 31 32 34 35 37 38 39 39 39 40 42 43 44 44 45 44 42 43 41 39 38 37 36 34
39 39 35 35 33 34 36 34 35 38 38 35 34 35 35 34 34 32 32 31 31 31 30 30 32 34 36 37 38 40 43 44 44 44 45 46 47 48 49 48 48 48 48 48 45 43 42 40 38
41 41 36 37 36 39 40 37 34 41 41 38 38 38 37 37 36 34 33 32 33 33 33 35 37 38 39 40 41 44 46 47 48 48 48 50 51 53 52 54 54 52 52 52 50 49 47 46 44
44 43 39 39 43 43 44 40 40 42 43 43 41 40 39 38 37 35 35 36 36 38 40 41 42 41 43 45 47 48 49 51 52 54 54 54 56 57 59 58 57 58 58 57 54 52 51 51 51
48 44 42 44 47 47 48 45 46 41 41 43 44 43 41 39 38 38 39 40 41 43 46 48 49 50 51 51 52 53 54 54 54 55 56 58 59 61 62 62 63 61 60 60 59 57 57 57 56
48 50 45 49 49 50 48 49 46 48 40 40 42 42 42 42 42 42 44 46 47 48 50 52 55 58 59 59 58 56 58 59 59 58 61 61 61 62 62 63 64 65 63 62 61 60 60 59 60
50 50 49 50 50 52 48 51 46 51 43 40 43 42 42 42 44 45 47 49 51 53 56 58 58 57 59 60 61 62 61 61 62 62 62 61 61 66 68 67 67 68 68 66 66 67 65 66 63
48 52 48 51 53 52 51 53 46 52 51 43 45 46 48 48 49 49 49 51 54 55 56 57 59 62 63 65 66 67 67 66 66 64 65 66 66 65 66 69 70 71 72 72 73 72 71 69 70
48 49 48 52 51 49 55 54 54 51 49 50 47 46 48 50 50 51 52 53 57 59 62 64 66 66 67 67 69 69 67 67 66 67 68 69 70 70 68 69 74 77 78 78 78 77 77 76 73
46 48 45 49 53 55 56 57 55 54 52 48 48 50 51 53 54 53 53 55 57 60 62 64 65 65 66 68 68 68 66 67 67 67 70 72 75 75 76 76 76 75 77 78 76 75 75 74 74
43 42 45 50 55 56 56 56 57 56 53 53 53 53 53 54 54 57 59 61 61 59 61 63 64 64 63 63 66 68 69 70 70 69 70 72 73 75 75 75 75 76 75 75 75 77 77 77 77
47 52 52 52 53 55 56 55 62 60 60 61 60 58 58 57 60 63 64 64 64 63 64 63 63 64 65 65 67 67 69 71 74 77 78 78 77 78 80 82 84 85 85 84 83 83 83 82 83
49 52 57 57 57 57 61 63 67 68 68 68 65 62 61 63 65 65 64 64 63 61 61 62 64 67 68 69 69 73 77 76 74 75 78 82 85 89 94 95 97 99 100 99 98 95 89 87 85
Wind_Direction
270 261 256 252 246 243 250 249 250 254 246 252 247 257 257 235 216 217 231 236 246 253 266 274 297 309 319 311 305 305 302 309 315 320 320 325 326 324 322 314 315 318 324 332 326 314 303 291 284
276 256 246 245 252 257 245 251 252 252 246 243 231 247 247 225 220 231 244 252 258 257 261 275 287 301 312 307 297 285 285 289 301 313 314 317 323 320 316 305 308 314 322 332 334 315 307 293 284
265 255 240 239 247 225 248 256 257 252 230 225 228 236 234 239 242 246 251 260 273 279 263 267 280 295 301 296 286 266 277 282 295 309 311 311 315 315 310 301 300 309 318 330 335 314 309 296 284
253 252 237 233 244 246 249 252 255 257 238 224 230 233 240 249 258 263 263 268 291 286 261 265 277 290 294 288 274 260 269 277 289 296 301 302 305 314 310 297 290 304 315 328 328 313 307 301 283
255 246 230 230 243 256 253 250 250 253 247 233 233 238 246 255 264 276 274 278 284 282 269 265 275 283 284 278 271 261 263 271 282 287 293 296 302 310 307 301 293 296 313 323 324 327 310 303 288
258 234 222 222 241 256 261 259 244 260 252 244 244 252 258 269 273 267 275 294 282 285 276 270 275 278 278 276 270 262 262 268 274 277 286 292 300 305 310 304 303 301 307 316 320 326 321 305 294
253 234 224 225 241 255 258 253 246 249 244 238 249 255 267 270 276 281 283 293 283 283 280 276 272 264 264 264 264 255 255 259 259 269 277 283 290 299 303 308 308 306 305 309 314 314 315 313 302
248 230 229 232 239 252 251 251 252 242 246 252 250 251 259 265 265 271 273 281 284 283 281 282 281 277 261 254 255 261 262 262 257 262 268 272 277 289 294 298 301 302 301 303 309 308 307 306 306
248 233 230 236 243 249 261 246 238 240 252 254 254 257 254 249 255 268 278 275 284 279 275 272 273 276 274 260 255 256 256 258 262 263 261 265 267 273 283 287 289 290 289 292 299 305 301 297 300
249 240 236 238 242 247 255 246 243 242 246 248 245 247 249 251 255 263 267 265 268 277 278 274 266 266 267 266 265 263 263 261 262 265 263 265 265 269 277 284 283 283 283 284 288 292 293 290 290
249 242 243 241 239 240 246 245 242 238 245 244 241 246 251 250 253 257 261 261 260 264 266 266 263 261 259 258 257 259 261 261 260 260 256 258 257 262 269 276 278 282 284 286 290 290 286 288 287
246 247 247 240 236 234 239 243 245 247 242 233 233 236 242 247 249 248 249 252 252 254 259 263 264 258 255 258 258 256 255 258 255 252 252 253 256 262 266 269 273 276 280 283 285 287 286 281 281
245 243 247 243 236 229 238 242 244 247 244 237 235 233 242 251 258 268 274 267 260 259 263 268 275 278 272 268 265 262 262 259 256 251 250 254 257 262 267 269 270 273 278 281 281 284 285 280 277
238 242 245 239 236 231 235 242 246 248 245 241 239 247 253 256 265 270 271 276 276 271 268 269 273 276 280 276 270 269 268 266 262 262 263 262 263 266 267 267 268 269 272 273 275 277 279 282 280
239 237 240 237 235 238 237 244 240 245 251 256 256 259 262 262 264 264 264 267 270 267 268 271 271 274 276 278 277 272 269 268 269 270 268 267 266 266 269 267 264 262 260 264 267 268 270 272 276
239 235 238 237 236 238 241 242 244 244 248 250 256 258 263 266 266 264 260 259 259 262 265 266 268 270 274 276 274 275 273 271 272 270 269 268 270 271 267 265 266 263 261 258 256 261 265 266 268
238 236 237 239 239 241 242 246 249 246 247 251 257 259 260 263 263 264 260 259 259 258 258 262 266 268 268 269 271 269 267 267 267 268 269 269 266 266 266 268 268 269 268 266 261 261 263 264 263
238 235 238 242 237 243 245 246 252 252 253 254 254 257 259 260 260 259 258 259 262 264 265 267 271 273 274 273 271 273 272 269 266 264 264 265 267 269 269 267 268 269 269 267 265 262 260 261 265
233 234 237 241 247 247 248 244 252 258 256 254 256 256 257 259 260 257 256 256 258 260 265 270 272 273 273 275 276 276 277 275 273 271 269 268 267 266 267 269 269 268 269 269 269 266 264 259 255
239 237 237 244 244 248 249 248 246 255 256 258 258 258 257 257 255 255 254 255 256 257 264 271 276 276 275 276 275 275 274 274 273 273 271 270 270 271 270 270 269 267 267 267 268 266 264 260 259
240 240 236 240 247 248 252 252 246 247 256 258 259 259 258 256 256 256 256 255 256 257 264 270 272 276 277 279 278 273 273 272 272 271 270 267 267 268 270 269 269 269 269 268 265 264 263 261 259
241 242 241 241 245 248 249 254 253 248 251 255 257 257 258 256 256 260 263 264 263 264 269 274 277 279 278 276 275 273 271 268 267 267 266 267 267 268 269 270 270 269 268 267 269 266 265 262 261
240 241 240 241 244 249 251 256 258 257 252 250 252 254 254 257 259 260 262 264 265 269 272 274 276 277 278 277 276 275 275 275 273 268 265 264 264 264 265 266 268 269 269 270 268 267 266 264 262
240 243 243 246 249 250 253 255 256 265 257 249 248 253 253 257 261 263 265 267 268 270 273 275 276 277 277 277 277 277 277 275 274 277 277 274 270 266 264 262 262 264 264 264 266 267 265 265 261
243 241 248 250 249 255 258 260 262 261 264 257 255 257 259 263 266 268 269 268 267 268 269 270 272 273 274 276 276 277 277 278 278 278 278 277 276 272 267 266 265 263 262 262 263 263 263 264 264
245 244 245 250 252 259 259 260 263 263 262 264 261 261 263 265 265 267 267 267 267 268 269 269 270 271 271 271 272 272 273 273 274 275 275 275 276 275 270 266 266 266 265 264 265 264 263 262 262
244 243 244 248 250 255 259 265 263 264 263 263 266 267 266 268 270 270 270 271 272 272 272 273 273 273 272 271 271 272 272 272 273 273 273 274 275 275 273 270 268 267 267 267 266 266 265 268 270
246 244 240 242 247 252 260 264 265 268 268 269 269 270 272 273 276 277 278 277 276 279 279 277 276 275 272 271 271 270 270 270 270 272 274 273 271 271 270 270 269 268 266 264 265 266 266 267 267
248 250 249 248 247 253 259 261 268 270 269 272 274 276 278 281 282 282 283 283 283 283 282 281 281 280 277 276 276 277 278 278 277 275 276 276 277 276 276 274 272 271 272 269 266 265 265 263 264
249 247 248 250 252 254 256 260 263 266 270 273 273 275 277 276 276 278 279 279 280 279 278 277 276 276 276 276 277 278 279 280 282 284 284 285 285 285 286 283 281 279 277 273 268 266 263 262 263